Location: Campestrin
(46.4667°N, 11.7167°E)
Time: 11:13:00
(UTC+00:00)

NOSS 3-1 (A) - Pass Details

Date: 18 April 2021
Orbit: 733 x 1479 km, 63.4° (Epoch: 01 May)

Event Time Altitude Azimuth Distance (km) Brightness Sun altitude
Rises 21:52:16 0° 320° (NW) 3,875 7.7 -29.7°
Reaches altitude 10° 21:54:47 10° 324° (NW) 3,018 6.9 -29.8°
Maximum altitude 22:02:07 65° 46° (NE) 1,393 4.2 -30.3°
Enters shadow 22:04:04 52° 100° (E) 1,604 4.3 -30.4°
